Weather History for KBTM - June, 2013

Change the Weather History Date:

Thursday, June 6, 2013

  Actual Average Record
Temperature  
Mean Temperature 59 °F 53 °F  
Max Temperature 76 °F 67 °F 89 °F (1977)
Min Temperature 41 °F 39 °F 22 °F (1916)
Degree Days  
Heating Degree Days 6 12  
Month to date heating degree days 82 75  
Since 1 June heating degree days 82 75  
Since 1 July heating degree days 8869 9007  
Cooling Degree Days 0 0  
Month to date cooling degree days 0 0  
Year to date cooling degree days 0 0  
Since 1 June cooling degree days 0 0  
Growing Degree Days 8 (Base 50)    
Moisture  
Dew Point 38 °F    
Average Humidity 53    
Maximum Humidity 83    
Minimum Humidity 23    
Precipitation  
Precipitation T in 0.09 in 1.18 in (2007)
Month to date precipitation 0.36 0.56  
Year to date precipitation 3.67 5.47  
Sea Level Pressure  
Sea Level Pressure 30.01 in    
Wind  
Wind Speed 4 mph (SE)    
Max Wind Speed 21 mph    
Max Gust Speed 28 mph    
Visibility 10 miles    
Events Rain    
T = Trace of Precipitation, MM = Missing Value Source: NWS Daily Summary

Daily Weather History Graph

Daily Weather History Graph

Search for Another Location

Airport or City:

Trip Planner

Search our weather history database for the weather conditions in past years. The results will help you decide how hot, cold, wet, or windy it might be!

Date:

Astronomy

Jun. 06, 2013 Rise Set
Actual Time 5:40 AM MDT 9:17 PM MDT
Civil Twilight 5:02 AM MDT 9:55 PM MDT
Nautical Twilight 4:12 AM MDT 10:46 PM MDT
Astronomical Twilight 3:04 AM MDT 11:54 PM MDT
Moon 4:30 AM MDT (6/6) 7:38 PM MDT (6/6)
Length of Visible Light 16h 52m
Length of Day
15h 37m
Waning Crescent, 3% of the Moon is Illuminated
Jun 6
Waning Crescent
Jun 8
New
Jun 16
First Quarter
Jun 23
Full
Jun 29
Last Quarter

Hourly Weather History & Observations

Time (MDT) Temp. Windchill Dew Point Humidity Pressure Visibility Wind Dir Wind Speed Gust Speed Precip Events Conditions
12:53 AM 48.0 °F - 39.9 °F 74% 30.03 in 10.0 mi Calm Calm - N/A   Clear
1:53 AM 46.9 °F - 39.9 °F 77% 30.01 in 10.0 mi SSE 6.9 mph - N/A   Clear
2:53 AM 45.0 °F 43.5 °F 39.9 °F 82% 30.03 in 10.0 mi SE 3.5 mph - N/A   Clear
3:53 AM 44.1 °F - 39.0 °F 82% 30.03 in 10.0 mi Calm Calm - N/A   Clear
4:53 AM 42.1 °F - 37.9 °F 85% 30.05 in 10.0 mi Calm Calm - N/A   Clear
5:53 AM 42.1 °F 40.2 °F 37.0 °F 82% 30.06 in 10.0 mi South 3.5 mph - N/A   Clear
6:53 AM 45.0 °F 42.6 °F 37.9 °F 76% 30.06 in 10.0 mi ESE 4.6 mph - N/A   Clear
7:53 AM 50.0 °F - 39.0 °F 66% 30.06 in 10.0 mi Calm Calm - N/A   Clear
8:53 AM 55.9 °F - 39.0 °F 53% 30.05 in 10.0 mi Calm Calm - N/A   Clear
9:53 AM 61.0 °F - 37.0 °F 41% 30.05 in 10.0 mi Calm Calm - N/A   Clear
10:53 AM 66.0 °F - 33.1 °F 29% 30.04 in 10.0 mi Variable 3.5 mph - N/A   Clear
11:53 AM 69.1 °F - 33.1 °F 26% 30.03 in 10.0 mi NNE 8.1 mph - N/A   Clear
12:53 PM 70.0 °F - 33.1 °F 26% 30.03 in 10.0 mi Variable 3.5 mph - N/A   Clear
1:53 PM 72.0 °F - 34.0 °F 25% 30.01 in 10.0 mi Variable 5.8 mph - N/A   Clear
2:53 PM 70.0 °F - 34.0 °F 27% 30.01 in 10.0 mi Calm Calm - N/A   Clear
3:53 PM 73.9 °F - 35.1 °F 24% 29.98 in 10.0 mi Calm Calm - N/A   Clear
4:53 PM 75.0 °F - 35.1 °F 23% 29.97 in 10.0 mi SE 5.8 mph - N/A   Clear
5:53 PM 75.0 °F - 36.0 °F 24% 29.96 in 10.0 mi Variable 3.5 mph - N/A   Clear
6:45 PM 71.6 °F - 39.2 °F 31% 30.08 in 10.0 mi NW 10.4 mph - 0.00 in Rain Light Rain
6:53 PM 71.1 °F - 36.0 °F 28% 29.97 in 10.0 mi NW 11.5 mph - 0.00 in   Mostly Cloudy
7:53 PM 72.0 °F - 39.0 °F 30% 29.94 in 10.0 mi East 4.6 mph - N/A   Clear
8:53 PM 66.9 °F - 41.0 °F 39% 29.94 in 10.0 mi South 8.1 mph - N/A   Scattered Clouds
9:53 PM 62.1 °F - 42.1 °F 48% 29.95 in 10.0 mi SE 6.9 mph - N/A   Partly Cloudy
10:53 PM 57.9 °F - 43.0 °F 58% 29.97 in 10.0 mi South 5.8 mph - N/A   Mostly Cloudy
11:53 PM 53.1 °F - 43.0 °F 69% 29.96 in 10.0 mi South 6.9 mph - N/A   Clear